[[{"header":{"parameterUnit":"m.s-1","parameterCategory":1,"la1":30.2991,"la2":30.254,"lo1":-89.0895,"lo2":-89.0444,"dy":0.0017,"dx":0.0017,"nx":28,"ny":28,"refTime":"2024-05-03T03:00:00:Z","depth":0,"parameterNumber":2,"parameterNumberName":"U-component_of_WINDS"},"data":[0,0,0,0,0,0,0,0,0,0,0,0,0,0,0,0,0,0,0,0,0,0,0,0,0,0,0,0,0,0,0,0,0,0,0,0,0,0,0,0,0,0,0,0,0,0,0,0,0,0,0,0,0,0,0,0,0,0,-4.3249,-4.325,0,-4.3395,-4.3396,-4.3398,-4.3401,-4.3399,-4.3397,-4.3396,-4.3543,-4.3548,-4.3554,0,0,0,0,0,0,0,0,0,0,0,0,0,-4.2972,-4.2977,-4.3249,-4.3251,-4.3252,-4.3395,-4.3397,-4.3399,-4.3401,-4.3399,-4.3397,-4.3395,-4.3541,-4.3548,-4.3554,0,0,0,0,0,0,0,0,0,0,0,0,0,-4.3102,-4.2978,-4.3248,-4.3271,-4.3275,-4.3394,-4.3397,-4.3399,-4.3402,-4.3399,-4.3396,-4.3394,-4.3539,-4.3547,-4.3555,-4.3661,0,0,-4.3581,-4.3585,0,0,0,0,0,0,0,0,-4.3095,-4.3112,-4.3266,-4.327,-4.3274,-4.3377,-4.3353,-4.3487,-4.3403,-4.3353,-4.3396,-4.3393,-4.349,-4.3502,-4.3535,-4.3668,-4.3675,-4.3582,-4.3587,-4.359,-4.3593,0,0,0,0,0,0,0,-4.3086,-4.3106,-4.3306,-4.3268,-4.3273,-4.3274,-4.3289,-4.3378,-4.3435,-4.3358,-4.3358,-4.3375,-4.3491,-4.3527,-4.3539,-4.3677,-4.3581,-4.3589,-4.3594,-4.3597,-4.3904,-4.3907,0,0,0,0,0,0,-4.3072,-4.3098,-4.3302,-4.3311,-4.3176,-4.3281,-4.3298,-4.3347,-4.3434,-4.3445,-4.3378,-4.3375,-4.3514,-4.3529,-4.3544,-4.3673,-4.359,-4.3598,-4.3603,-4.3901,-4.3905,-4.3909,0,0,0,0,0,0,-4.3066,-4.309,-4.3296,-4.3205,-4.3231,-4.3289,-4.3343,-4.3351,-4.3387,-4.3449,-4.3459,-4.3404,-4.3513,-4.3532,-4.3632,-4.3678,-4.3602,-4.361,-4.3898,-4.3903,-4.3907,-4.3933,0,0,0,0,0,0,-4.3058,-4.3088,-4.3129,-4.3206,-4.3236,-4.3382,-4.3346,-4.3356,-4.3401,-4.3399,-4.3476,-4.3486,-4.3512,-4.362,-4.3641,-4.3688,-4.3616,-4.3894,-4.39,-4.3905,-4.3928,-4.3938,-4.3946,0,0,0,0,0,-4.3049,-4.313,-4.3131,-4.3156,-4.3288,-4.3385,-4.3402,-4.343,-4.3405,-4.3446,-4.3487,-4.3484,-4.3671,-4.363,-4.3654,-4.3705,-4.3891,-4.3898,-4.3905,-4.3924,-4.3936,-4.3946,0,0,0,0,0,0,-4.3056,-4.314,-4.3143,-4.3252,-4.3311,-4.3385,-4.3438,-4.3442,-4.3509,-4.3504,-4.3536,-4.3554,-4.3653,-4.369,-4.3643,-4.3812,-4.3778,-4.379,-4.3784,-4.3796,-4.3805,-4.3793,-4.3623,0,0,0,0,0,-4.3071,-4.3142,-4.3212,-4.3302,-4.3332,-4.338,-4.3423,-4.344,-4.3503,-4.3527,-4.3575,-4.3635,-4.3708,-4.3754,-4.3824,-4.3935,-4.3951,-4.3982,-4.3991,-4.3998,-4.4007,-4.4068,-4.4082,-4.3932,-4.3932,-4.3931,0,0,-4.3101,-4.3156,-4.3199,-4.3305,-4.3353,-4.3426,-4.3401,-4.3479,-4.3533,-4.3539,-4.3636,-4.3674,-4.3744,-4.3849,-4.3898,-4.3882,-4.4053,-4.4007,-4.4012,-4.4017,-4.4076,-4.409,-4.4103,-4.3936,-4.3936,-4.3935,0,0,-4.3193,-4.3243,-4.3322,-4.3372,-4.3445,-4.3477,-4.3497,-4.3571,-4.3596,-4.3695,-4.3701,-4.3766,-4.389,-4.3939,-4.3981,-4.4094,-4.4093,-4.4116,-4.4162,-4.4221,-4.4233,-4.4243,-4.4283,-4.4296,-4.4126,-4.4126,-4.4126,0,-4.3221,-4.3331,-4.3362,-4.3441,-4.3487,-4.3498,-4.3578,-4.3625,-4.3717,-4.3749,-4.373,-4.3887,-4.3935,-4.4052,-4.4079,-4.4113,-4.4135,-4.4106,-4.4229,-4.424,-4.425,-4.4288,-4.4302,-4.4128,-4.4128,-4.4128,-4.4127,0,-4.3361,-4.3438,-4.3494,-4.3584,-4.3637,-4.3716,-4.3759,-4.3809,-4.3822,-4.3856,-4.3957,-4.4015,-4.4097,-4.4127,-4.414,-4.4246,-4.4234,-4.4222,-4.4188,-4.4266,-4.4302,-4.4317,-4.4131,-4.413,-4.413,-4.4129,0,0,-4.3459,-4.3567,-4.3587,-4.3628,-4.3711,-4.3771,-4.3851,-4.3933,-4.3974,-4.4039,-4.4106,-4.4212,-4.4202,-4.4249,-4.4268,-4.432,-4.4405,-4.4302,-4.4305,-4.4318,-4.4525,-4.4531,-4.4547,-4.4407,-4.441,-4.4412,-4.4518,0,-4.3558,-4.3701,-4.3733,-4.3855,-4.3927,-4.3939,-4.4009,-4.4067,-4.4102,-4.4167,-4.4206,-4.4279,-4.4262,-4.429,-4.4342,-4.4384,-4.4447,-4.4377,-4.4468,-4.4471,-4.4448,-4.4566,-4.4573,-4.467,-4.4533,-4.4535,-4.4537,0,-4.3693,-4.3761,-4.3891,-4.3966,-4.3997,-4.4059,-4.4136,-4.4199,-4.4266,-4.4288,-4.4341,-4.4356,-4.444,-4.4404,-4.4519,-4.4471,-4.4511,-4.4537,-4.4542,-4.4549,-4.4506,-4.4574,-4.4702,-4.4716,-4.4559,-4.4558,-4.4556,0,-4.3749,-4.3874,-4.3968,-4.4003,-4.4093,-4.4136,-4.4175,-4.424,-4.4287,-4.4355,-4.4386,-4.4463,-4.4504,-4.4563,-4.4598,-4.4568,-4.471,-4.4677,-4.4729,-4.4728,-4.4756,-4.4753,-4.4889,-4.4786,-4.4785,-4.4785,-4.4785,0,-4.3855,-4.3934,-4.3994,-4.4051,-4.414,-4.4176,-4.4263,-4.4302,-4.436,-4.4425,-4.4441,-4.4502,-4.4546,-4.4612,-4.4641,-4.4731,-4.475,-4.4769,-4.4775,-4.4766,-4.4764,-4.4791,-4.4784,-4.4789,-4.4788,-4.4787,-4.4787,0,-4.3931,-4.3975,-4.4078,-4.4155,-4.4177,-4.4238,-4.4305,-4.4361,-4.4397,-4.4479,-4.4501,-4.4557,-4.4637,-4.4678,-4.4777,-4.4796,-4.4898,-4.4901,-4.4875,-4.4877,-4.4926,-4.492,-4.5082,-4.5104,-4.4988,-4.4989,-4.499,0,-4.3995,-4.4056,-4.414,-4.4185,-4.4226,-4.4298,-4.4347,-4.4386,-4.4435,-4.4517,-4.4564,-4.4645,-4.4711,-4.4838,-4.4887,-4.4963,-4.4967,-4.5019,-4.4978,-4.4968,-4.4966,-4.496,-4.4966,-4.5025,-4.5026,-4.5027,-4.5027,0,-4.4102,-4.4122,-4.4191,-4.4269,-4.4327,-4.4389,-4.4452,-4.4488,-4.4536,-4.4592,-4.4674,-4.4726,-4.4828,-4.4908,-4.4988,-4.5028,-4.5036,-4.504,-4.5056,-4.5046,-4.5028,-4.5037,-4.4892,-4.5036,-4.5035,-4.5034,-4.5034,-4.5033,-4.4173,-4.4228,-4.4296,-4.4373,-4.4424,-4.4482,-4.4539,-4.4583,-4.4652,-4.4738,-4.4758,-4.4844,-4.4911,-4.502,-4.5063,-4.5131,-4.512,-4.5143,-4.5149,-4.5153,-4.5154,-4.5019,-4.5146,-4.5146,-4.5146,-4.5145,-4.5145,0,-4.428,-4.4325,-4.4396,-4.4483,-4.4544,-4.4548,-4.4617,-4.4667,-4.4743,-4.4805,-4.4871,-4.4965,-4.5043,-4.51,-4.5179,-4.5223,-4.5228,-4.5242,-4.5238,-4.5247,-4.516,-4.5138,-4.5236,-4.5236,-4.5236,-4.5236,-4.5236,-4.5236,-4.4343,-4.4435,-4.4463,-4.4581,-4.4626,-4.4711,-4.475,-4.4804,-4.4853,-4.4958,-4.5023,-4.506,-4.512,-4.5204,-4.5276,-4.5291,-4.5318,-4.5331,-4.5346,-4.5263,-4.5253,-4.5244,-4.5223,-4.5338,-4.5338,-4.5427,-4.5428,-4.5428]},{"header":{"parameterUnit":"m.s-1","parameterCategory":1,"la1":30.2991,"la2":30.254,"lo1":-89.0895,"lo2":-89.0444,"dy":0.0017,"dx":0.0017,"nx":28,"ny":28,"refTime":"2024-05-03T03:00:00:Z","depth":0,"parameterNumber":3,"parameterNumberName":"V-component_of_WINDS"},"data":[0,0,0,0,0,0,0,0,0,0,0,0,0,0,0,0,0,0,0,0,0,0,0,0,0,0,0,0,0,0,0,0,0,0,0,0,0,0,0,0,0,0,0,0,0,0,0,0,0,0,0,0,0,0,0,0,0,0,4.9641,4.9642,0,4.9671,4.9671,4.9672,4.9631,4.963,4.9628,4.9627,4.9654,4.9656,4.9658,0,0,0,0,0,0,0,0,0,0,0,0,0,4.9548,4.955,4.9641,4.9642,4.9642,4.9671,4.9671,4.9672,4.9631,4.963,4.9628,4.9626,4.9653,4.9655,4.9658,0,0,0,0,0,0,0,0,0,0,0,0,0,4.9584,4.9551,4.9641,4.9626,4.9625,4.9671,4.9671,4.9672,4.9632,4.963,4.9627,4.9625,4.9652,4.9655,4.9658,4.972,0,0,4.9667,4.9669,0,0,0,0,0,0,0,0,4.9582,4.9588,4.9628,4.9627,4.9626,4.9645,4.9648,4.9688,4.9632,4.9629,4.9627,4.9624,4.9652,4.9655,4.9665,4.9721,4.9722,4.9668,4.967,4.9671,4.9672,0,0,0,0,0,0,0,4.958,4.9586,4.9653,4.9628,4.9627,4.9616,4.9619,4.9655,4.9652,4.9629,4.9626,4.963,4.9651,4.9662,4.9666,4.9723,4.9668,4.967,4.9672,4.9673,4.9832,4.9834,0,0,0,0,0,0,4.958,4.9584,4.9652,4.9654,4.9598,4.962,4.9623,4.9641,4.9652,4.9651,4.9632,4.9628,4.9658,4.9662,4.9666,4.974,4.9671,4.9674,4.9676,4.983,4.9833,4.9835,0,0,0,0,0,0,4.9578,4.9586,4.9651,4.9618,4.9626,4.9624,4.9644,4.9643,4.9654,4.9654,4.9653,4.9644,4.9657,4.9662,4.9708,4.974,4.9675,4.9678,4.9827,4.9831,4.9834,4.9888,0,0,0,0,0,0,4.9575,4.9586,4.9609,4.9619,4.9628,4.9692,4.9646,4.9645,4.966,4.9655,4.9665,4.9665,4.9655,4.9703,4.9711,4.9743,4.968,4.9824,4.9829,4.9833,4.9883,4.9893,4.9901,0,0,0,0,0,4.9572,4.9622,4.9611,4.9619,4.9658,4.9694,4.9699,4.9688,4.9662,4.9686,4.9687,4.9664,4.9736,4.9708,4.9716,4.975,4.9822,4.9827,4.9832,4.9879,4.9891,4.9901,0,0,0,0,0,0,4.9614,4.9623,4.961,4.9666,4.968,4.9687,4.9717,4.9701,4.9721,4.9716,4.9701,4.9703,4.9752,4.9756,4.9725,4.9812,4.9775,4.9782,4.9807,4.9818,4.9827,4.9825,4.9683,0,0,0,0,0,4.9631,4.966,4.9666,4.9714,4.9722,4.9719,4.9734,4.9725,4.9738,4.9743,4.9747,4.976,4.9785,4.9802,4.9825,4.9884,4.9885,4.9911,4.992,4.9928,4.9934,4.9965,4.9977,4.9853,4.9853,4.9853,0,0,4.9663,4.9672,4.9691,4.9723,4.9733,4.9763,4.9723,4.9757,4.9779,4.9748,4.9791,4.9795,4.9808,4.9861,4.9884,4.9865,4.9969,4.9935,4.9941,4.9942,4.9972,4.9984,4.9994,4.9856,4.9856,4.9855,0,0,4.9739,4.9749,4.979,4.9801,4.9817,4.9815,4.9825,4.9836,4.9837,4.9881,4.9859,4.9885,4.9929,4.9939,4.9951,5.0033,5.0013,5.0041,5.0088,5.0119,5.0128,5.0137,5.0166,5.0177,5.0047,5.0048,5.0048,0,4.9777,4.9823,4.9813,4.9849,4.9864,4.9839,4.9881,4.9892,4.9914,4.9924,4.9904,4.996,4.9967,5.0022,5.0042,5.0052,5.0063,5.0039,5.0128,5.0137,5.0144,5.0172,5.0183,5.0051,5.005,5.005,5.005,0,4.987,4.9902,4.9934,4.9958,4.9976,5.0015,5.001,5.003,5.002,5.002,5.0065,5.0073,5.0098,5.0111,5.0101,5.0165,5.0153,5.0131,5.0093,5.016,5.0185,5.0196,5.0055,5.0054,5.0053,5.0052,0,0,4.997,4.9991,5.0002,5.0014,5.0031,5.0055,5.0093,5.0119,5.0136,5.0153,5.0184,5.0223,5.0203,5.0216,5.0207,5.0235,5.0299,5.0209,5.0209,5.0225,5.0371,5.0387,5.0399,5.0287,5.0289,5.0291,5.037,0,5.0046,5.0113,5.0106,5.0169,5.0199,5.0177,5.021,5.0224,5.0225,5.025,5.0251,5.0279,5.025,5.0258,5.0285,5.0286,5.0328,5.028,5.0315,5.0316,5.0312,5.0413,5.043,5.0504,5.038,5.0381,5.0382,0,5.0142,5.0165,5.0232,5.0246,5.0258,5.0288,5.0312,5.0336,5.0352,5.0351,5.0367,5.0353,5.0391,5.0354,5.0405,5.0373,5.0387,5.039,5.0393,5.0394,5.0353,5.0417,5.0527,5.0538,5.0398,5.0397,5.0396,0,5.0209,5.0256,5.0302,5.0313,5.033,5.0352,5.036,5.0373,5.039,5.041,5.0421,5.0446,5.0459,5.0478,5.0471,5.0445,5.0524,5.0486,5.0524,5.0524,5.054,5.0539,5.0653,5.0551,5.0551,5.0551,5.055,0,5.0294,5.0335,5.0333,5.0361,5.0407,5.0399,5.0445,5.045,5.0462,5.0491,5.0473,5.05,5.049,5.0516,5.0512,5.0555,5.0561,5.0561,5.0559,5.0562,5.0562,5.057,5.0565,5.0554,5.0553,5.0552,5.0552,0,5.0375,5.0376,5.0425,5.0438,5.0442,5.0476,5.0487,5.0513,5.0514,5.055,5.0558,5.0559,5.059,5.0586,5.0619,5.0615,5.067,5.0662,5.0665,5.0663,5.07,5.0697,5.0823,5.0839,5.0727,5.0728,5.0729,0,5.0429,5.0461,5.0479,5.0497,5.0507,5.0537,5.0555,5.0548,5.0567,5.0588,5.0612,5.0641,5.0664,5.0713,5.0716,5.0742,5.0734,5.0776,5.0737,5.074,5.0734,5.0732,5.0735,5.0784,5.0785,5.0786,5.0787,0,5.0524,5.0523,5.055,5.0577,5.0599,5.062,5.0639,5.0655,5.065,5.0672,5.0704,5.0722,5.0757,5.0785,5.081,5.0817,5.0801,5.08,5.0809,5.0812,5.0813,5.0813,5.0685,5.0796,5.0795,5.0795,5.0794,5.0794,5.0593,5.0621,5.0638,5.0669,5.0683,5.0701,5.0727,5.0733,5.0759,5.0788,5.0783,5.0818,5.0833,5.0865,5.0875,5.0902,5.0886,5.0901,5.0904,5.0908,5.0912,5.081,5.0907,5.0906,5.0906,5.0906,5.0906,0,5.0687,5.0698,5.0726,5.0754,5.0779,5.0764,5.0784,5.0805,5.0837,5.0853,5.0877,5.0914,5.0942,5.0948,5.0975,5.0996,5.0989,5.1003,5.1001,5.1003,5.0925,5.0913,5.1008,5.1008,5.1008,5.1008,5.1008,5.1008,5.0739,5.0785,5.0787,5.084,5.085,5.0886,5.0899,5.0916,5.0929,5.0971,5.0996,5.1,5.1012,5.104,5.1066,5.1067,5.1077,5.1094,5.1092,5.1019,5.1008,5.0999,5.0988,5.1096,5.1097,5.1168,5.1168,5.1169]}]]